Location: Weatherford
(35.5260°N, 98.7070°W)
Time: 01:07:41
(UTC-06:00)

Amateur Radio Satellites - All Passes

Search period start: 01 February 2015 00:37
Search period end: 02 February 2015 00:37
Location: Weatherford, 35.5260°N, 98.7070°W

Satellite Date Start Highest point End Downlink Frequencies (MHz)
Time Altitude Azimuth
NANOSAT C BR1 01 Feb 00:45:27 00:48:08 16° 291° (WNW) 00:50:36 145.865
SPROUT 01 Feb 00:52:12 00:55:52 26° 264° (W) 00:59:31 437.525
QB50P2 01 Feb 01:03:31 01:04:04 10° 294° (WNW) 01:04:20 145.880/145.840
BUGSAT 1 01 Feb 01:06:50 01:08:36 12° 293° (WNW) 01:10:07 437.445
O/OREOS (USA 219) 01 Feb 01:13:15 01:16:36 20° 59° (ENE) 01:20:05 437.305
KKS-1 01 Feb 01:18:35 01:20:33 13° 67° (ENE) 01:22:43 437.445
TISAT 1 01 Feb 01:21:02 01:23:04 13° 269° (W) 01:24:53 437.305
GONETS M04 01 Feb 01:22:46 01:31:26 70° 94° (E) 01:40:07
SWISSCUBE 01 Feb 01:27:58 01:32:43 79° 259° (W) 01:37:30 437.505
BEESAT 01 Feb 01:43:16 01:47:57 58° 260° (W) 01:52:39 436.000
Oscar 19 01 Feb 01:46:33 01:51:33 50° 99° (E) 01:56:31 437.125/150
Gurwin Techsat 1B 01 Feb 01:48:16 01:48:30 10° 88° (E) 01:49:10 435.225
ITUPSAT 1 01 Feb 01:49:08 01:53:46 51° 260° (W) 01:58:25 437.325
BEESAT 2 01 Feb 01:58:46 02:02:52 82° 299° (WNW) 02:07:03 435.950
ITAMSAT 1 01 Feb 02:09:43 02:14:06 28° 95° (E) 02:18:35 435.822/435.867
BEESAT 3 01 Feb 02:09:56 02:13:55 52° 302° (WNW) 02:17:59 437.485
AIST 2 01 Feb 02:10:18 02:14:23 50° 116° (ESE) 02:18:34 435.215
M-CUBED/EXP-1 PRIME 01 Feb 02:22:40 02:25:50 24° 68° (ENE) 02:28:53 437.505
CUSAT 1 01 Feb 02:27:21 02:30:01 12° 82° (E) 02:33:27 437.405
PCSat 01 Feb 02:35:59 02:38:04 13° 105° (ESE) 02:40:29 145.827
STARS 01 Feb 02:39:08 02:43:33 69° 76° (ENE) 02:48:00 437.465
O/OREOS (USA 219) 01 Feb 02:51:59 02:56:10 34° 255° (WSW) 03:00:17 437.305
KKS-1 01 Feb 02:52:25 02:56:48 52° 260° (W) 03:01:13 437.445
AUBIESAT-1 01 Feb 02:52:36 02:56:26 50° 71° (ENE) 03:00:00 437.475
HORYU 2 01 Feb 03:02:30 03:05:13 16° 92° (E) 03:08:07 437.375
GONETS M04 01 Feb 03:22:35 03:29:12 22° 293° (WNW) 03:35:22
Gurwin Techsat 1B 01 Feb 03:23:52 03:29:11 79° 285° (WNW) 03:34:30 435.225
ISS 01 Feb 03:25:00 03:27:49 26° 33° (NNE) 03:30:39 145.825
Oscar 19 01 Feb 03:27:10 03:30:33 17° 294° (WNW) 03:33:42 437.125/150
RS-15 01 Feb 03:37:56 03:47:16 36° 108° (ESE) 03:56:54 29.354- 29.394
ITAMSAT 1 01 Feb 03:49:01 03:53:36 31° 290° (WNW) 03:58:06 435.822/435.867
AIST 2 01 Feb 03:50:43 03:53:22 15° 313° (NW) 03:55:53 435.215
DANDE 01 Feb 03:51:30 03:59:20 51° 92° (E) 04:07:38 436.750
M-CUBED/EXP-1 PRIME 01 Feb 03:57:43 04:00:48 20° 259° (W) 04:03:37 437.505
CUSAT 1 01 Feb 04:03:52 04:12:01 71° 96° (E) 04:20:22 437.405
AO-7 01 Feb 04:13:59 04:21:49 45° 100° (E) 04:29:41 29.400- 29.500
PCSat 01 Feb 04:15:33 04:20:57 71° 298° (WNW) 04:26:23 145.827
HORYU 2 01 Feb 04:37:58 04:42:05 37° 288° (WNW) 04:46:09 437.375
MOZHAYETS 4 01 Feb 04:53:27 04:58:02 72° 259° (W) 05:02:37
ISS 01 Feb 05:01:25 05:04:16 27° 228° (SW) 05:07:05 145.825
JAS-2 01 Feb 05:19:20 05:25:16 79° 102° (ESE) 05:32:01 435.910
CUBESAT XI-V 01 Feb 05:20:08 05:22:30 14° 67° (ENE) 05:25:04 437.345
YUBILEINY 01 Feb 05:34:58 05:41:06 21° 66° (ENE) 05:47:40 435.215
DANDE 01 Feb 05:35:29 05:43:04 36° 289° (WNW) 05:50:43 436.750
PRISM 01 Feb 05:38:30 05:42:06 31° 72° (ENE) 05:45:45 437.425
RS-15 01 Feb 05:48:29 05:59:13 58° 307° (NW) 06:09:59 29.354- 29.394
CUSAT 1 01 Feb 05:49:04 05:55:46 25° 293° (WNW) 06:02:10 437.405
PCSat 01 Feb 06:04:38 06:05:29 10° 318° (NW) 06:06:02 145.827
AO-7 01 Feb 06:07:01 06:14:30 37° 296° (WNW) 06:21:47 29.400- 29.500
Cubesat XI-IV 01 Feb 06:16:23 06:21:12 34° 97° (E) 06:26:04 437.490
VERMONT LUNAR 01 Feb 06:25:11 06:27:49 21° 146° (SE) 06:30:30 437.305
CUTE-I 01 Feb 06:35:07 06:40:21 51° 100° (E) 06:45:35 437.470
STRAND 1 01 Feb 06:40:39 06:45:44 79° 76° (ENE) 06:50:52 437.568
CUBESAT XI-V 01 Feb 06:55:08 06:59:36 49° 261° (W) 07:04:04 437.345
JAS-2 01 Feb 07:06:52 07:10:00 14° 294° (WNW) 07:12:57 435.910
PRISM 01 Feb 07:14:56 07:17:44 17° 267° (W) 07:20:22 437.425
YUBILEINY 01 Feb 07:30:08 07:38:54 72° 266° (W) 07:47:38 435.215
PHONESAT 2.4 01 Feb 07:42:35 07:46:01 45° 151° (SSE) 07:49:29 2401.200-2431.200
Cubesat XI-IV 01 Feb 07:56:41 08:01:11 27° 291° (WNW) 08:05:35 437.490
VERMONT LUNAR 01 Feb 08:02:13 08:05:41 77° 339° (NNW) 08:09:10 437.305
RS-15 01 Feb 08:07:51 08:14:52 18° 336° (NNW) 08:21:37 29.354- 29.394
CUTE-I 01 Feb 08:16:23 08:20:05 19° 294° (WNW) 08:23:35 437.470
HO-68 01 Feb 08:23:53 08:29:21 24° 93° (E) 08:35:04 435.675
SO-50 01 Feb 08:35:35 08:37:27 13° 109° (ESE) 08:39:36 436.795
DOVE 4 01 Feb 08:44:46 08:48:14 19° 90° (E) 08:51:46 437.250
GOMX 1 01 Feb 08:47:22 08:51:59 30° 94° (E) 08:56:26 467.674
CANX-2 01 Feb 08:50:04 08:53:48 30° 96° (E) 08:57:33 2200.000
AAUSAT CUBESAT 2 01 Feb 08:50:27 08:53:00 16° 92° (E) 08:55:41 437.432
BRITE-PL 01 Feb 09:08:21 09:13:58 74° 100° (E) 09:19:15 437.365/2234.400
CUTE 1.7 + AOD 2 01 Feb 09:13:25 09:17:33 54° 99° (E) 09:21:40 437.475
PHONESAT 2.4 01 Feb 09:21:06 09:24:36 48° 347° (NNW) 09:28:07 2401.200-2431.200
Oscar 11 01 Feb 09:27:19 09:30:34 21° 94° (E) 09:33:55 145.826/435.025
UWE-3 01 Feb 09:31:04 09:33:03 13° 90° (E) 09:35:16 435.000/436.395/437.385
YUBILEINY 01 Feb 09:32:45 09:34:27 10° 282° (WNW) 09:35:16 435.215
SEEDS 01 Feb 09:39:18 09:43:31 85° 283° (WNW) 09:47:41 437.485
VERMONT LUNAR 01 Feb 09:40:49 09:44:03 35° 356° (N) 09:47:18 437.305
CINEMA 3 01 Feb 09:43:21 09:47:52 43° 98° (E) 09:52:10 145.822/145.860
UNISAT 6 01 Feb 09:46:01 09:49:59 28° 71° (ENE) 09:54:01 437.425
NANOSAT C BR1 01 Feb 09:59:08 10:02:15 21° 70° (ENE) 10:05:32 145.865
DELFI C3 01 Feb 10:00:51 10:04:41 42° 98° (E) 10:08:32 145.870
COMPASS 1 01 Feb 10:01:05 10:05:10 55° 285° (WNW) 10:09:12 437.405
HUMSAT D 01 Feb 10:03:50 10:05:41 13° 90° (E) 10:07:44 437.325/437.525
UKube-1 01 Feb 10:04:09 10:07:59 30° 97° (E) 10:11:50 .
HO-68 01 Feb 10:10:31 10:17:29 56° 290° (WNW) 10:24:24 435.675
SO-50 01 Feb 10:13:04 10:17:32 57° 303° (WNW) 10:22:10 436.795
QB50P2 01 Feb 10:14:44 10:18:31 32° 72° (ENE) 10:22:23 145.880/145.840
BUGSAT 1 01 Feb 10:17:15 10:20:33 24° 71° (ENE) 10:23:59 437.445
ANTELSAT 01 Feb 10:21:28 10:26:10 70° 75° (ENE) 10:30:50 437.575/2403.000
DOVE 4 01 Feb 10:21:29 10:26:16 40° 288° (WNW) 10:30:45 437.250
BEESAT 2 01 Feb 10:21:54 10:25:21 25° 52° (NE) 10:28:49 435.950
QB50P1 01 Feb 10:22:38 10:26:36 39° 73° (ENE) 10:30:38 145.935-145.965
AAUSAT CUBESAT 2 01 Feb 10:25:04 10:28:48 32° 287° (WNW) 10:32:29 437.432
GOMX 1 01 Feb 10:25:28 10:30:02 28° 290° (WNW) 10:34:16 467.674
ZACube-1 01 Feb 10:25:29 10:29:43 48° 99° (E) 10:33:51 437.345
CANX-2 01 Feb 10:26:35 10:29:35 18° 290° (WNW) 10:32:25 2200.000
TIGRISAT 01 Feb 10:27:08 10:31:51 79° 77° (ENE) 10:36:33 435.000
DX 1 01 Feb 10:28:39 10:33:01 62° 101° (E) 10:37:23 434.975-435.025
RS-15 01 Feb 10:28:55 10:33:48 13° 12° (NNE) 10:39:01 29.354- 29.394
BEESAT 3 01 Feb 10:32:15 10:36:06 36° 55° (NE) 10:39:54 437.485
CUBEBUG 2 01 Feb 10:32:42 10:37:14 89° 99° (E) 10:41:34 437.445
AIST 2 01 Feb 10:36:04 10:38:40 16° 47° (NE) 10:41:23 435.215
FUNcube-1 01 Feb 10:36:11 10:40:32 65° 100° (E) 10:44:45 145.935
POLYITAN 1 01 Feb 10:39:26 10:43:41 64° 76° (ENE) 10:47:59 437.675
50 SAT 01 Feb 10:42:50 10:46:17 27° 96° (E) 10:49:44 437.505
BRITE-PL 01 Feb 10:48:58 10:51:48 14° 296° (WNW) 10:54:17 437.365/2234.400
CUTE 1.7 + AOD 2 01 Feb 10:51:47 10:53:05 11° 293° (WNW) 10:54:09 437.475
AIST 1 01 Feb 10:55:08 10:59:01 36° 92° (E) 11:02:58
POPSAT HIP 1 01 Feb 10:57:34 11:01:51 79° 258° (WSW) 11:06:10 437.405
DUCHIFAT 1 01 Feb 10:58:10 11:02:25 78° 258° (WSW) 11:06:44 145.980
PHONESAT 2.4 01 Feb 11:00:11 11:03:34 36° 4° (N) 11:06:57 2401.200-2431.200
Oscar 11 01 Feb 11:03:06 11:06:46 27° 288° (WNW) 11:10:22 145.826/435.025
UWE-3 01 Feb 11:05:43 11:09:58 44° 286° (WNW) 11:14:02 435.000/436.395/437.385
AISAT 01 Feb 11:09:20 11:13:50 67° 101° (E) 11:18:19 437.250
VERMONT LUNAR 01 Feb 11:19:10 11:22:32 46° 13° (NNE) 11:25:56 437.305
CINEMA 3 01 Feb 11:21:40 11:24:43 17° 293° (WNW) 11:27:30 145.822/145.860
UNISAT 6 01 Feb 11:22:49 11:26:45 25° 265° (W) 11:30:35 437.425
ESTCUBE 1 01 Feb 11:23:15 11:27:29 39° 98° (E) 11:31:45 437.505/2401.250
CUBEBUG 1 01 Feb 11:33:43 11:38:01 47° 99° (E) 11:42:19 437.445
NANOSAT C BR1 01 Feb 11:34:16 11:38:00 28° 264° (W) 11:41:42 145.865
VELOX 1 01 Feb 11:35:47 11:40:15 62° 285° (WNW) 11:44:40 145.980
GONETS M04 01 Feb 11:37:29 11:44:41 29° 71° (ENE) 11:52:06
DELFI C3 01 Feb 11:37:43 11:39:37 13° 291° (WNW) 11:41:19 145.870
HUMSAT D 01 Feb 11:37:47 11:41:46 41° 286° (WNW) 11:45:40 437.325/437.525
UKube-1 01 Feb 11:40:42 11:43:59 21° 291° (WNW) 11:47:09 .
QB50P2 01 Feb 11:51:30 11:54:32 18° 267° (W) 11:57:27 145.880/145.840
BUGSAT 1 01 Feb 11:52:46 11:56:02 22° 266° (W) 11:59:14 437.445
BEESAT 2 01 Feb 12:00:03 12:03:32 25° 248° (WSW) 12:06:54 435.950
QB50P1 01 Feb 12:00:11 12:02:43 15° 268° (W) 12:05:04 145.935-145.965
ZACube-1 01 Feb 12:03:38 12:05:42 13° 293° (WNW) 12:07:32 437.345
DX 1 01 Feb 12:07:39 12:08:49 11° 294° (WNW) 12:09:42 434.975-435.025
BEESAT 3 01 Feb 12:11:15 12:13:59 17° 249° (WSW) 12:16:32 437.485
AIST 2 01 Feb 12:13:29 12:17:36 47° 245° (WSW) 12:21:38 435.215
50 SAT 01 Feb 12:18:22 12:21:14 18° 290° (WNW) 12:23:57 437.505
AIST 1 01 Feb 12:34:29 12:36:55 14° 288° (WNW) 12:39:11
PHONESAT 2.4 01 Feb 12:38:46 12:42:24 78° 19° (NNE) 12:46:03 2401.200-2431.200
RS-15 01 Feb 12:40:56 12:51:04 37° 44° (NE) 13:01:47 29.354- 29.394
SPROUT 01 Feb 12:41:14 12:45:35 66° 100° (E) 12:49:53 437.525
AISAT 01 Feb 12:48:55 12:49:59 11° 294° (WNW) 12:50:45 437.250
VERMONT LUNAR 01 Feb 12:57:17 13:00:40 46° 208° (SSW) 13:04:02 437.305
Oscar 19 01 Feb 13:00:19 13:05:21 54° 74° (ENE) 13:10:26 437.125/150
ESTCUBE 1 01 Feb 13:01:03 13:04:07 17° 292° (WNW) 13:07:00 437.505/2401.250
Gurwin Techsat 1B 01 Feb 13:05:17 13:07:45 14° 65° (ENE) 13:10:29 435.225
TISAT 1 01 Feb 13:06:19 13:10:35 63° 285° (WNW) 13:14:48 437.305
PCSat 01 Feb 13:06:34 13:11:48 48° 59° (ENE) 13:17:02 145.827
CUBEBUG 1 01 Feb 13:11:37 13:14:03 14° 293° (WNW) 13:16:15 437.445
ITAMSAT 1 01 Feb 13:24:52 13:29:20 31° 70° (ENE) 13:33:56 435.822/435.867
SWISSCUBE 01 Feb 13:31:45 13:36:03 33° 97° (E) 13:40:24 437.505
GONETS M04 01 Feb 13:33:35 13:41:58 53° 269° (W) 13:50:16
BEESAT 01 Feb 13:46:39 13:51:13 45° 99° (E) 13:55:48 436.000
ITUPSAT 1 01 Feb 13:52:44 13:57:24 51° 100° (E) 14:02:05 437.325
HORYU 2 01 Feb 13:59:46 14:01:12 12° 66° (ENE) 14:02:53 437.375
PHONESAT 2.4 01 Feb 14:17:51 14:20:44 22° 214° (SW) 14:23:35 2401.200-2431.200
STARS 01 Feb 14:33:32 14:36:13 16° 92° (E) 14:39:05 437.465
DANDE 01 Feb 14:41:57 14:46:41 25° 66° (ENE) 14:50:33 436.750
Gurwin Techsat 1B 01 Feb 14:41:57 14:47:13 68° 258° (WSW) 14:52:32 435.225
Oscar 19 01 Feb 14:41:59 14:45:07 15° 269° (W) 14:47:58 437.125/150
KKS-1 01 Feb 14:46:50 14:50:58 37° 97° (E) 14:55:07 437.445
PCSat 01 Feb 14:51:00 14:54:54 20° 253° (WSW) 14:58:35 145.827
CUSAT 1 01 Feb 14:51:41 14:56:40 35° 71° (ENE) 15:00:31 437.405
RS-15 01 Feb 14:52:59 15:04:19 66° 246° (WSW) 15:16:05 29.354- 29.394
ITAMSAT 1 01 Feb 15:04:30 15:08:52 27° 265° (W) 15:13:10 435.822/435.867
AO-7 01 Feb 15:09:30 15:17:20 48° 66° (ENE) 15:25:16 29.400- 29.500
SWISSCUBE 01 Feb 15:10:03 15:13:45 22° 291° (WNW) 15:17:21 437.505
O/OREOS (USA 219) 01 Feb 15:21:53 15:26:00 37° 105° (ESE) 15:30:11 437.305
BEESAT 01 Feb 15:25:39 15:28:46 17° 293° (WNW) 15:31:42 436.000
JAS-2 01 Feb 15:31:05 15:34:51 20° 68° (ENE) 15:38:41 435.910
ITUPSAT 1 01 Feb 15:32:08 15:34:57 15° 293° (WNW) 15:37:31 437.325
HORYU 2 01 Feb 15:32:59 15:37:26 60° 260° (W) 15:41:53 437.375
M-CUBED/EXP-1 PRIME 01 Feb 15:41:36 15:44:32 27° 103° (ESE) 15:47:37 437.505
STARS 01 Feb 16:08:46 16:12:54 38° 287° (WNW) 16:16:57 437.465
AUBIESAT-1 01 Feb 16:11:20 16:14:42 65° 106° (ESE) 16:18:15 437.475
JUGNU 01 Feb 16:15:52 16:18:49 14° 171° (S) 16:21:51 437.505
KKS-1 01 Feb 16:24:18 16:27:23 18° 292° (WNW) 16:30:18 437.445
DANDE 01 Feb 16:25:17 16:30:11 28° 274° (W) 16:33:57 436.750
CUSAT 1 01 Feb 16:35:51 16:39:06 16° 277° (W) 16:41:41 437.405
MOZHAYETS 4 01 Feb 16:51:59 16:56:05 33° 96° (E) 17:00:15
O/OREOS (USA 219) 01 Feb 17:02:28 17:05:37 18° 302° (WNW) 17:08:39 437.305
AO-7 01 Feb 17:02:49 17:10:20 35° 263° (W) 17:17:41 29.400- 29.500
SRMSAT 01 Feb 17:04:08 17:06:05 12° 167° (SSE) 17:08:09 437.500
RS-15 01 Feb 17:12:01 17:15:17 11° 260° (W) 17:17:07 29.354- 29.394
JAS-2 01 Feb 17:14:40 17:19:50 40° 261° (W) 17:24:42 435.910
M-CUBED/EXP-1 PRIME 01 Feb 17:17:35 17:19:24 14° 294° (WNW) 17:21:07 437.505
Cubesat XI-IV 01 Feb 17:35:29 17:40:26 41° 72° (ENE) 17:45:27 437.490
CUTE-I 01 Feb 17:54:01 17:59:15 62° 74° (ENE) 18:04:33 437.470
JUGNU 01 Feb 18:03:25 18:07:07 17° 181° (S) 18:10:50 437.505
MOZHAYETS 4 01 Feb 18:29:45 18:33:09 20° 291° (WNW) 18:36:25
YUBILEINY 01 Feb 18:32:34 18:39:15 27° 85° (E) 18:46:15 435.215
SO-50 01 Feb 18:47:13 18:52:05 57° 57° (ENE) 18:56:56 436.795
SRMSAT 01 Feb 18:50:48 18:54:32 17° 177° (S) 18:58:18 437.500
HO-68 01 Feb 18:52:10 18:55:18 14° 58° (ENE) 18:58:52 435.675
STRAND 1 01 Feb 18:54:36 18:59:13 34° 97° (E) 19:03:54 437.568
CUBESAT XI-V 01 Feb 18:54:45 18:59:21 51° 99° (E) 19:03:57 437.345
PRISM 01 Feb 18:59:04 19:03:14 82° 102° (ESE) 19:07:25 437.425
Cubesat XI-IV 01 Feb 19:16:42 19:20:45 21° 267° (W) 19:24:38 437.490
CUTE-I 01 Feb 19:37:06 19:39:52 14° 270° (W) 19:42:19 437.470
CANX-2 01 Feb 19:41:20 19:43:59 17° 69° (ENE) 19:46:46 2200.000
DOVE 4 01 Feb 19:47:47 19:50:44 16° 66° (ENE) 19:53:59 437.250
GOMX 1 01 Feb 19:52:19 19:56:25 25° 69° (ENE) 20:00:48 467.674
JUGNU 01 Feb 19:52:45 19:55:25 13° 191° (S) 19:58:02 437.505
ISS 01 Feb 20:02:29 20:05:30 36° 133° (SE) 20:08:33 145.825
CUTE 1.7 + AOD 2 01 Feb 20:03:53 20:07:28 27° 72° (ENE) 20:11:07 437.475
BRITE-PL 01 Feb 20:15:28 20:20:28 60° 75° (ENE) 20:25:54 437.365/2234.400
Oscar 11 01 Feb 20:20:57 20:22:40 13° 68° (ENE) 20:24:38 145.826/435.025
YUBILEINY 01 Feb 20:27:05 20:35:36 57° 282° (WNW) 20:44:07 435.215
SEEDS 01 Feb 20:28:34 20:32:37 44° 74° (ENE) 20:36:41 437.485
SO-50 01 Feb 20:29:24 20:32:15 15° 251° (WSW) 20:34:52 436.795
CUBESAT XI-V 01 Feb 20:33:48 20:36:25 14° 293° (WNW) 20:38:49 437.345
STRAND 1 01 Feb 20:34:05 20:38:17 25° 291° (WNW) 20:42:22 437.568
HO-68 01 Feb 20:34:58 20:42:07 83° 74° (ENE) 20:49:18 435.675
SRMSAT 01 Feb 20:39:31 20:43:01 16° 187° (S) 20:46:28 437.500
CINEMA 3 01 Feb 20:41:50 20:46:08 31° 71° (ENE) 20:50:34 145.822/145.860
DELFI C3 01 Feb 20:47:09 20:49:57 19° 70° (ENE) 20:52:52 145.870
COMPASS 1 01 Feb 20:49:20 20:53:31 66° 76° (ENE) 20:57:42 437.405
UKube-1 01 Feb 20:57:12 21:00:08 19° 69° (ENE) 21:03:12 .
AAUSAT CUBESAT 2 01 Feb 21:12:37 21:16:49 74° 259° (WSW) 21:21:01 437.432
CANX-2 01 Feb 21:15:42 21:19:41 36° 263° (W) 21:23:38 2200.000
ZACube-1 01 Feb 21:18:39 21:22:33 29° 72° (ENE) 21:26:33 437.345
DX 1 01 Feb 21:21:34 21:25:31 36° 72° (ENE) 21:29:34 434.975-435.025
DOVE 4 01 Feb 21:23:02 21:28:00 57° 261° (W) 21:33:14 437.250
CUBEBUG 2 01 Feb 21:27:28 21:32:04 53° 75° (ENE) 21:36:45 437.445
FUNcube-1 01 Feb 21:28:56 21:33:08 36° 73° (ENE) 21:37:23 145.935
50 SAT 01 Feb 21:28:58 21:30:48 13° 68° (ENE) 21:32:50 437.505
GOMX 1 01 Feb 21:29:37 21:34:20 36° 265° (W) 21:39:15 467.674
ISS 01 Feb 21:39:29 21:42:04 21° 329° (NNW) 21:44:38 145.825
CUTE 1.7 + AOD 2 01 Feb 21:40:04 21:43:25 21° 266° (W) 21:46:39 437.475
Oscar 11 01 Feb 21:54:15 21:58:29 51° 261° (W) 22:02:44 145.826/435.025
BRITE-PL 01 Feb 21:56:41 21:59:35 14° 273° (W) 22:02:16 437.365/2234.400
UWE-3 01 Feb 21:59:06 22:03:48 82° 258° (WSW) 22:08:31 435.000/436.395/437.385
AISAT 01 Feb 22:04:34 22:08:44 41° 73° (ENE) 22:12:57 437.250
SEEDS 01 Feb 22:06:44 22:08:44 13° 269° (W) 22:10:29 437.485
ANTELSAT 01 Feb 22:18:12 22:21:02 17° 92° (E) 22:24:00 437.575/2403.000
CINEMA 3 01 Feb 22:19:10 22:23:20 26° 266° (W) 22:27:29 145.822/145.860
ESTCUBE 1 01 Feb 22:20:36 22:24:14 26° 71° (ENE) 22:27:59 437.505/2401.250
DELFI C3 01 Feb 22:21:29 22:25:02 28° 264° (W) 22:28:33 145.870
TIGRISAT 01 Feb 22:23:21 22:26:28 19° 93° (E) 22:29:40 435.000
HUMSAT D 01 Feb 22:26:15 22:30:36 90° 220° (SW) 22:34:59 437.325/437.525
HO-68 01 Feb 22:26:46 22:30:45 15° 271° (W) 22:34:14 435.675
CUBEBUG 1 01 Feb 22:27:32 22:31:11 27° 71° (ENE) 22:34:56 437.445
POLYITAN 1 01 Feb 22:30:04 22:32:04 13° 91° (E) 22:34:19 437.675
VELOX 1 01 Feb 22:30:25 22:34:50 80° 76° (ENE) 22:39:19 145.980
UKube-1 01 Feb 22:32:09 22:36:06 33° 263° (W) 22:40:00 .
AIST 1 01 Feb 22:42:25 22:46:48 81° 264° (W) 22:51:11
POPSAT HIP 1 01 Feb 22:46:53 22:50:08 21° 94° (E) 22:53:28 437.405
DUCHIFAT 1 01 Feb 22:47:09 22:50:23 21° 94° (E) 22:53:41 145.980
ZACube-1 01 Feb 22:55:11 22:58:56 24° 266° (W) 23:02:36 437.345
DX 1 01 Feb 22:59:08 23:01:58 16° 267° (W) 23:04:38 434.975-435.025
50 SAT 01 Feb 23:01:37 23:05:34 43° 261° (W) 23:09:32 437.505
FUNcube-1 01 Feb 23:06:22 23:09:37 18° 268° (W) 23:12:45 145.935
CUBEBUG 2 01 Feb 23:06:40 23:09:10 14° 270° (W) 23:11:24 437.445
UNISAT 6 01 Feb 23:17:19 23:21:45 90° 100° (E) 23:26:03 437.425
NANOSAT C BR1 01 Feb 23:21:56 23:26:10 57° 100° (E) 23:30:21 145.865
SPROUT 01 Feb 23:32:45 23:36:38 34° 73° (ENE) 23:40:35 437.525
BUGSAT 1 01 Feb 23:37:07 23:41:24 66° 101° (E) 23:45:38 437.445
QB50P2 01 Feb 23:38:34 23:42:53 87° 283° (WNW) 23:47:10 145.880/145.840
AISAT 01 Feb 23:42:52 23:45:36 15° 268° (W) 23:48:08 437.250
QB50P1 01 Feb 23:46:29 23:50:47 71° 283° (WNW) 23:55:01 145.935-145.965
ANTELSAT 01 Feb 23:54:02 23:58:00 33° 288° (WNW) 00:01:51 437.575/2403.000
TISAT 1 01 Feb 23:55:37 23:59:48 63° 76° (ENE) 00:04:02 437.305
ESTCUBE 1 01 Feb 23:57:22 00:01:05 25° 265° (W) 00:04:45 437.505/2401.250
TIGRISAT 01 Feb 23:59:28 00:03:19 30° 288° (WNW) 00:07:03 435.000
CUBEBUG 1 02 Feb 00:04:09 00:07:34 22° 266° (W) 00:10:55 437.445
POLYITAN 1 02 Feb 00:04:12 00:08:18 42° 286° (WNW) 00:12:20 437.675
POPSAT HIP 1 02 Feb 00:22:23 00:26:03 27° 289° (WNW) 00:29:39 437.405
DUCHIFAT 1 02 Feb 00:22:35 00:26:15 27° 289° (WNW) 00:29:50 145.980
BEESAT 3 02 Feb 00:25:20 00:27:24 14° 110° (ESE) 00:29:39 437.485
